Location: Newark
(30.1000°N, 109.4667°E)
Time: 21:35:36
(UTC+00:00)

Vanguard 2 Rocket - Visible Passes

Search period start: 18 February 2020 00:00
Search period end: 28 February 2020 00:00
Orbit: 554 x 3327 km, 32.9° (Epoch: 18 February)

Date Brightness Start Highest point End Pass type
(mag) Time Alt. Az. Time Alt. Az. Time Alt. Az.
18 Feb 9.4 11:22:40 10° SW 11:40:43 48° SSE 11:49:51 22° E visible
18 Feb 8.6 13:40:27 10° WSW 13:55:41 73° SW 13:55:41 73° SW visible
18 Feb 10.5 16:00:36 10° W 16:01:30 12° W 16:01:30 12° W visible
19 Feb 8.6 12:37:46 10° WSW 12:56:15 73° SSE 12:59:43 56° E visible
19 Feb 9.7 14:57:45 10° W 15:05:32 33° W 15:05:32 33° W visible
20 Feb 9.3 11:35:33 10° SW 11:54:50 62° SSE 12:03:44 26° E visible
20 Feb 8.7 13:54:39 10° WSW 14:09:33 70° W 14:09:33 70° W visible
20 Feb 10.6 16:15:05 10° W 16:15:22 11° W 16:15:22 11° W visible
21 Feb 9.7 10:34:00 10° SW 10:53:08 51° SSE 11:07:16 10° E visible
21 Feb 8.6 12:51:39 10° WSW 13:10:29 86° SSE 13:13:32 63° E visible
21 Feb 9.8 15:12:16 10° W 15:19:21 31° W 15:19:21 31° W visible
22 Feb 9.2 11:49:02 10° WSW 12:08:56 76° SSE 12:17:29 30° E visible
22 Feb 8.9 14:09:06 10° W 14:23:19 63° WNW 14:23:19 63° WNW visible
23 Feb 9.6 10:47:01 10° SW 11:07:06 65° SSE 11:21:25 11° ENE visible
23 Feb 8.6 13:05:54 10° WSW 13:24:47 85° NNW 13:27:14 68° ENE visible
23 Feb 9.9 15:26:46 10° W 15:33:03 28° WNW 15:33:03 28° WNW visible
24 Feb 9.1 12:02:58 10° WSW 12:23:09 87° SSE 12:31:07 35° ENE visible
24 Feb 9.0 14:23:38 10° W 14:36:56 57° WNW 14:36:56 57° WNW visible
25 Feb 9.5 11:00:35 10° WSW 11:21:09 78° SSE 11:34:59 14° ENE visible
25 Feb 8.6 13:20:21 10° W 13:39:13 80° N 13:40:48 73° NE visible
25 Feb 10.1 15:41:09 10° WNW 15:46:36 25° WNW 15:46:36 25° WNW visible
26 Feb 9.1 12:17:14 10° WSW 12:37:28 85° NNW 12:44:38 39° ENE visible
26 Feb 9.2 14:38:07 10° W 14:50:27 52° WNW 14:50:27 52° WNW visible
27 Feb 9.5 11:14:35 10° WSW 11:35:20 88° SSE 11:48:27 18° ENE visible
27 Feb 8.7 13:34:53 10° W 13:53:42 80° N 13:54:16 79° NNE visible
27 Feb 10.2 15:55:29 10° WNW 16:00:04 22° WNW 16:00:04 22° WNW visible
